CST,Max TemperatureF,Mean TemperatureF,Min TemperatureF,Max Dew PointF,MeanDew PointF,Min DewpointF,Max Humidity, Mean Humidity, Min Humidity, Max Sea Level PressureIn, Mean Sea Level PressureIn, Min Sea Level PressureIn, Max VisibilityMiles, Mean VisibilityMiles, Min VisibilityMiles, Max Wind SpeedMPH, Mean Wind SpeedMPH, Max Gust SpeedMPH,PrecipitationIn, CloudCover, Events, WindDirDegrees
2013-11-1,66,56,45,55,48,42,100,79,45,29.86,29.78,29.69,10,10,10,14,7,18,0.00,1,,236
2013-11-2,58,48,38,46,41,37,100,81,51,30.20,30.01,29.85,10,10,5,17,3,24,0.00,3,,298
2013-11-3,58,45,32,42,35,29,100,73,34,30.33,30.25,30.19,10,8,2,8,1,,0.00,0,,125
2013-11-4,60,52,45,52,43,38,100,75,45,30.29,30.25,30.21,10,9,4,12,3,18,0.03,3,Rain,157
2013-11-5,64,57,50,50,46,42,100,63,49,30.33,30.23,30.14,10,10,5,9,3,18,0.02,5,,144
2013-11-6,60,51,41,58,49,40,100,84,53,30.24,30.10,30.03,10,8,2,17,9,24,0.25,7,Rain,218
2013-11-7,53,44,34,40,34,27,100,76,36,30.39,30.33,30.25,10,10,10,8,4,,0.03,0,,306
2013-11-8,58,44,30,40,32,27,100,71,31,30.40,30.30,30.21,10,9,2,10,1,,0.00,0,,138
2013-11-9,64,50,37,43,39,33,100,64,39,30.24,30.19,30.13,10,10,10,18,5,30,0.00,0,,204
2013-11-10,61,48,34,43,33,24,100,67,25,30.39,30.32,30.24,10,8,0,13,2,,0.00,0,Fog,8
2013-11-11,62,48,33,45,35,29,100,62,31,30.33,30.24,30.15,10,10,10,18,3,28,0.00,5,Rain,251
2013-11-12,42,34,26,36,23,17,85,63,37,30.70,30.60,30.34,10,10,10,17,12,28,0.00,3,Rain,355
2013-11-13,44,32,20,24,21,17,100,66,33,30.72,30.59,30.41,10,10,10,7,1,,0.00,0,,177
2013-11-14,55,42,29,25,21,17,72,46,23,30.41,30.28,30.14,10,10,10,14,6,22,0.00,0,,183
2013-11-15,52,45,38,50,37,22,100,67,42,30.16,30.09,30.03,10,10,4,8,2,,0.00,6,Rain,160
2013-11-16,66,58,50,61,56,51,100,85,73,30.04,29.92,29.78,10,10,4,14,8,22,0.00,7,Rain-Thunderstorm,164
2013-11-17,72,64,56,68,55,25,100,73,27,29.96,29.73,29.55,10,9,1,24,13,40,1.17,5,Rain-Thunderstorm,223
2013-11-18,60,47,34,40,32,24,93,55,30,30.29,30.16,29.97,10,10,10,14,5,24,0.00,0,,312
2013-11-19,50,41,32,32,28,24,98,66,36,30.35,30.27,30.21,10,10,3,8,3,,0.00,0,,43
2013-11-20,57,44,30,35,32,27,92,65,39,30.22,30.16,30.10,10,10,10,7,2,,0.00,0,,131
2013-11-21,60,53,46,57,48,35,100,80,62,30.22,30.18,30.15,10,8,2,8,2,,0.12,6,Rain,156
2013-11-22,57,48,40,57,47,34,100,95,79,30.44,30.32,30.17,10,6,1,16,6,22,0.13,8,Rain,343
2013-11-23,42,33,23,34,22,13,85,62,30,30.67,30.54,30.43,10,10,10,18,10,28,0.00,3,,355
2013-11-24,32,25,18,17,12,9,74,56,37,30.73,30.62,30.46,10,10,10,13,6,20,0.00,0,,27
2013-11-25,38,34,29,34,22,16,100,65,44,30.45,30.31,30.20,10,10,4,10,3,,0.00,7,Rain-Snow,177
2013-11-26,40,34,28,34,29,15,100,79,55,30.19,30.08,29.99,10,9,3,21,5,31,0.00,7,Rain-Snow,353
2013-11-27,31,24,17,14,10,5,87,54,35,30.37,30.28,30.15,10,10,10,20,12,29,0.00,0,,329
2013-11-28,44,30,16,25,18,11,93,62,36,30.48,30.39,30.31,10,10,10,15,4,21,0.00,0,,202
2013-11-29,50,36,21,29,26,21,100,76,42,30.59,30.51,30.43,10,9,7,7,1,,0.00,0,,110
2013-11-30,56,42,27,31,26,22,100,57,27,30.42,30.30,30.19,10,10,7,15,4,21,0.00,1,,188